Year,Month,Day,Hour,Minute,Value (Times are PST for temperature in C)
2023,05,14,00,00,17.10
2023,05,14,00,01,17.10
2023,05,14,00,02,17.10
2023,05,14,00,03,17.00
2023,05,14,00,04,17.10
2023,05,14,00,05,17.10
2023,05,14,00,06,17.00
2023,05,14,00,07,17.00
2023,05,14,00,08,17.00
2023,05,14,00,09,17.00
2023,05,14,00,10,17.00
2023,05,14,00,11,17.00
2023,05,14,00,12,17.00
2023,05,14,00,13,17.00
2023,05,14,00,14,17.00
2023,05,14,00,15,17.00
2023,05,14,00,16,17.00
2023,05,14,00,17,17.00
2023,05,14,00,18,17.00
2023,05,14,00,19,17.00
2023,05,14,00,20,16.80
2023,05,14,00,21,16.70
2023,05,14,00,22,16.70
2023,05,14,00,23,16.70
2023,05,14,00,24,16.60
2023,05,14,00,25,16.50
2023,05,14,00,26,16.50
2023,05,14,00,27,16.50
2023,05,14,00,28,16.40
2023,05,14,00,29,16.40
2023,05,14,00,30,16.40
2023,05,14,00,31,16.40
2023,05,14,00,32,16.40
2023,05,14,00,33,16.40
2023,05,14,00,34,16.30
2023,05,14,00,35,16.30
2023,05,14,00,36,16.30
2023,05,14,00,37,16.30
2023,05,14,00,38,16.30
2023,05,14,00,39,16.30
2023,05,14,00,40,16.30
2023,05,14,00,41,16.30
2023,05,14,00,42,16.30
2023,05,14,00,43,16.20
2023,05,14,00,44,16.30
2023,05,14,00,45,16.30
2023,05,14,00,46,16.30
2023,05,14,00,47,16.30
2023,05,14,00,48,16.30
2023,05,14,00,49,16.30
2023,05,14,00,50,16.30
2023,05,14,00,51,16.20
2023,05,14,00,52,16.20
2023,05,14,00,53,16.20
2023,05,14,00,54,16.20
2023,05,14,00,55,16.10
2023,05,14,00,56,16.10
2023,05,14,00,57,16.10
2023,05,14,00,58,16.10
2023,05,14,00,59,16.10
2023,05,14,01,00,16.10
2023,05,14,01,01,16.10
2023,05,14,01,02,16.10
2023,05,14,01,03,16.00
2023,05,14,01,04,16.00
2023,05,14,01,05,16.00
2023,05,14,01,06,16.00
2023,05,14,01,07,16.00
2023,05,14,01,08,16.00
2023,05,14,01,09,16.00
2023,05,14,01,10,16.00
2023,05,14,01,11,16.00
2023,05,14,01,12,16.00
2023,05,14,01,13,15.90
2023,05,14,01,14,15.90
2023,05,14,01,15,15.90
2023,05,14,01,16,15.80
2023,05,14,01,17,15.80
2023,05,14,01,18,15.80
2023,05,14,01,19,15.80
2023,05,14,01,20,15.80
2023,05,14,01,21,15.70
2023,05,14,01,22,15.70
2023,05,14,01,23,15.70
2023,05,14,01,24,15.70
2023,05,14,01,25,15.70
2023,05,14,01,26,15.70
2023,05,14,01,27,15.70
2023,05,14,01,28,15.70
2023,05,14,01,29,15.70
2023,05,14,01,30,15.70
2023,05,14,01,31,15.70
2023,05,14,01,32,15.70
2023,05,14,01,33,15.70
2023,05,14,01,34,15.70
2023,05,14,01,35,15.70
2023,05,14,01,36,15.70
2023,05,14,01,37,15.70
2023,05,14,01,38,15.70
2023,05,14,01,39,15.70
2023,05,14,01,40,15.70
2023,05,14,01,41,15.70
2023,05,14,01,42,15.70
2023,05,14,01,43,15.70
2023,05,14,01,44,15.70
2023,05,14,01,45,15.70
2023,05,14,01,46,15.70
2023,05,14,01,47,15.70
2023,05,14,01,48,15.70
2023,05,14,01,49,15.70
2023,05,14,01,50,15.70
2023,05,14,01,51,15.80
2023,05,14,01,52,15.80
2023,05,14,01,53,15.80
2023,05,14,01,54,15.80
2023,05,14,01,55,15.90
2023,05,14,01,56,15.90
2023,05,14,01,57,15.90
2023,05,14,01,58,15.90
2023,05,14,01,59,15.90
2023,05,14,02,00,15.90
2023,05,14,02,01,15.90
2023,05,14,02,02,15.90
2023,05,14,02,03,15.90
2023,05,14,02,04,15.90
2023,05,14,02,05,15.80
2023,05,14,02,06,15.80
2023,05,14,02,07,15.80
2023,05,14,02,08,15.70
2023,05,14,02,09,15.70
2023,05,14,02,10,15.60
2023,05,14,02,11,15.60
2023,05,14,02,12,15.50
2023,05,14,02,13,15.50
2023,05,14,02,14,15.40
2023,05,14,02,15,15.40
2023,05,14,02,16,15.30
2023,05,14,02,17,15.30
2023,05,14,02,18,15.30
2023,05,14,02,19,15.30
2023,05,14,02,20,15.30
2023,05,14,02,21,15.20
2023,05,14,02,22,15.20
2023,05,14,02,23,15.20
2023,05,14,02,24,15.20
2023,05,14,02,25,15.20
2023,05,14,02,26,15.10
2023,05,14,02,27,15.10
2023,05,14,02,28,15.10
2023,05,14,02,29,15.10
2023,05,14,02,30,15.10
2023,05,14,02,31,15.10
2023,05,14,02,32,15.10
2023,05,14,02,33,15.00
2023,05,14,02,34,15.00
2023,05,14,02,35,15.00
2023,05,14,02,36,14.90
2023,05,14,02,37,14.90
2023,05,14,02,38,14.90
2023,05,14,02,39,14.90
2023,05,14,02,40,14.90
2023,05,14,02,41,14.80
2023,05,14,02,42,14.80
2023,05,14,02,43,14.80
2023,05,14,02,44,14.80
2023,05,14,02,45,14.80
2023,05,14,02,46,14.80
2023,05,14,02,47,14.80
2023,05,14,02,48,14.80
2023,05,14,02,49,14.80
2023,05,14,02,50,14.80
2023,05,14,02,51,14.80
2023,05,14,02,52,14.70
2023,05,14,02,53,14.70
2023,05,14,02,54,14.70
2023,05,14,02,55,14.70
2023,05,14,02,56,14.70
2023,05,14,02,57,14.70
2023,05,14,02,58,14.70
2023,05,14,02,59,14.70
2023,05,14,03,00,14.70
2023,05,14,03,01,14.70
2023,05,14,03,02,14.70
2023,05,14,03,03,14.70
2023,05,14,03,04,14.70
2023,05,14,03,05,14.70
2023,05,14,03,06,14.70
2023,05,14,03,07,14.70
2023,05,14,03,08,14.60
2023,05,14,03,09,14.60
2023,05,14,03,10,14.60
2023,05,14,03,11,14.60
2023,05,14,03,12,14.70
2023,05,14,03,13,14.70
2023,05,14,03,14,14.70
2023,05,14,03,15,14.70
2023,05,14,03,16,14.70
2023,05,14,03,17,14.70
2023,05,14,03,18,14.70
2023,05,14,03,19,14.60
2023,05,14,03,20,14.60
2023,05,14,03,21,14.60
2023,05,14,03,22,14.60
2023,05,14,03,23,14.60
2023,05,14,03,24,14.60
2023,05,14,03,25,14.60
2023,05,14,03,26,14.60
2023,05,14,03,27,14.60
2023,05,14,03,28,14.60
2023,05,14,03,29,14.60
2023,05,14,03,30,14.60
2023,05,14,03,31,14.60
2023,05,14,03,32,14.60
2023,05,14,03,33,14.60
2023,05,14,03,34,14.60
2023,05,14,03,35,14.60
2023,05,14,03,36,14.60
2023,05,14,03,37,14.60
2023,05,14,03,38,14.60
2023,05,14,03,39,14.60
2023,05,14,03,40,14.60
2023,05,14,03,41,14.60
2023,05,14,03,42,14.50
2023,05,14,03,43,14.50
2023,05,14,03,44,14.50
2023,05,14,03,45,14.50
2023,05,14,03,46,14.50
2023,05,14,03,47,14.40
2023,05,14,03,48,14.40
2023,05,14,03,49,14.40
2023,05,14,03,50,14.40
2023,05,14,03,51,14.50
2023,05,14,03,52,14.50
2023,05,14,03,53,14.60
2023,05,14,03,54,14.60
2023,05,14,03,55,14.60
2023,05,14,03,56,14.60
2023,05,14,03,57,14.60
2023,05,14,03,58,14.60
2023,05,14,03,59,14.60
2023,05,14,04,00,14.60
2023,05,14,04,01,14.60
2023,05,14,04,02,14.50
2023,05,14,04,03,14.50
2023,05,14,04,04,14.50
2023,05,14,04,05,14.50
2023,05,14,04,06,14.50
2023,05,14,04,07,14.40
2023,05,14,04,08,14.50
2023,05,14,04,09,14.40
2023,05,14,04,10,14.40
2023,05,14,04,11,14.40
2023,05,14,04,12,14.40
2023,05,14,04,13,14.40
2023,05,14,04,14,14.40
2023,05,14,04,15,14.30
2023,05,14,04,16,14.30
2023,05,14,04,17,14.20
2023,05,14,04,18,14.20
2023,05,14,04,19,14.10
2023,05,14,04,20,14.20
2023,05,14,04,21,14.10
2023,05,14,04,22,14.10
2023,05,14,04,23,14.20
2023,05,14,04,24,14.20
2023,05,14,04,25,14.20
2023,05,14,04,26,14.20
2023,05,14,04,27,14.20
2023,05,14,04,28,14.20
2023,05,14,04,29,14.20
2023,05,14,04,30,14.20
2023,05,14,04,31,14.20
2023,05,14,04,32,14.20
2023,05,14,04,33,14.20
2023,05,14,04,34,14.20
2023,05,14,04,35,14.20
2023,05,14,04,36,14.20
2023,05,14,04,37,14.20
2023,05,14,04,38,14.20
2023,05,14,04,39,14.20
2023,05,14,04,40,14.20
2023,05,14,04,41,14.20
2023,05,14,04,42,14.20
2023,05,14,04,43,14.10
2023,05,14,04,44,14.10
2023,05,14,04,45,14.10
2023,05,14,04,46,14.10
2023,05,14,04,47,14.00
2023,05,14,04,48,14.00
2023,05,14,04,49,14.00
2023,05,14,04,50,14.00
2023,05,14,04,51,13.90
2023,05,14,04,52,13.90
2023,05,14,04,53,13.90
2023,05,14,04,54,13.90
2023,05,14,04,55,13.90
2023,05,14,04,56,13.90
2023,05,14,04,57,13.90
2023,05,14,04,58,13.90
2023,05,14,04,59,13.90
2023,05,14,05,00,13.90
2023,05,14,05,01,13.90
2023,05,14,05,02,13.90
2023,05,14,05,03,13.90
2023,05,14,05,04,14.00
2023,05,14,05,05,14.00
2023,05,14,05,06,14.00
2023,05,14,05,07,14.00
2023,05,14,05,08,14.10
2023,05,14,05,09,14.10
2023,05,14,05,10,14.10
2023,05,14,05,11,14.10
2023,05,14,05,12,14.10
2023,05,14,05,13,14.10
2023,05,14,05,14,14.20
2023,05,14,05,15,14.10
2023,05,14,05,16,14.10
2023,05,14,05,17,14.10
2023,05,14,05,18,14.10
2023,05,14,05,19,14.10
2023,05,14,05,20,14.20
2023,05,14,05,21,14.20
2023,05,14,05,22,14.30
2023,05,14,05,23,14.30
2023,05,14,05,24,14.30
2023,05,14,05,25,14.40
2023,05,14,05,26,14.40
2023,05,14,05,27,14.40
2023,05,14,05,28,14.40
2023,05,14,05,29,14.40
2023,05,14,05,30,14.40
2023,05,14,05,31,14.40
2023,05,14,05,32,14.40
2023,05,14,05,33,14.40
2023,05,14,05,34,14.40
2023,05,14,05,35,14.40
2023,05,14,05,36,14.30
2023,05,14,05,37,14.30
2023,05,14,05,38,14.30
2023,05,14,05,39,14.20
2023,05,14,05,40,14.20
2023,05,14,05,41,14.20
2023,05,14,05,42,14.20
2023,05,14,05,43,14.20
2023,05,14,05,44,14.20
2023,05,14,05,45,14.20
2023,05,14,05,46,14.20
2023,05,14,05,47,14.20
2023,05,14,05,48,14.20
2023,05,14,05,49,14.20
2023,05,14,05,50,14.20
2023,05,14,05,51,14.20
2023,05,14,05,52,14.30
2023,05,14,05,53,14.30
2023,05,14,05,54,14.30
2023,05,14,05,55,14.30
2023,05,14,05,56,14.30
2023,05,14,05,57,14.40
2023,05,14,05,58,14.40
2023,05,14,05,59,14.40
2023,05,14,06,00,14.40
2023,05,14,06,01,14.40
2023,05,14,06,02,14.40
2023,05,14,06,03,14.40
2023,05,14,06,04,14.30
2023,05,14,06,05,14.30
2023,05,14,06,06,14.30
2023,05,14,06,07,14.20
2023,05,14,06,08,14.20
2023,05,14,06,09,14.20
2023,05,14,06,10,14.20
2023,05,14,06,11,14.20
2023,05,14,06,12,14.20
2023,05,14,06,13,14.20
2023,05,14,06,14,14.20
2023,05,14,06,15,14.20
2023,05,14,06,16,14.10
2023,05,14,06,17,14.10
2023,05,14,06,18,14.10
2023,05,14,06,19,14.10
2023,05,14,06,20,14.10
2023,05,14,06,21,14.10
2023,05,14,06,22,14.10
2023,05,14,06,23,14.10
2023,05,14,06,24,14.10
2023,05,14,06,25,14.10
2023,05,14,06,26,14.20
2023,05,14,06,27,14.20
2023,05,14,06,28,14.20
2023,05,14,06,29,14.20
2023,05,14,06,30,14.20
2023,05,14,06,31,14.20
2023,05,14,06,32,14.20
2023,05,14,06,33,14.20
2023,05,14,06,34,14.20
2023,05,14,06,35,14.20
2023,05,14,06,36,14.20
2023,05,14,06,37,14.20
2023,05,14,06,38,14.20
2023,05,14,06,39,14.20
2023,05,14,06,40,14.20
2023,05,14,06,41,14.30
2023,05,14,06,42,14.30
2023,05,14,06,43,14.30
2023,05,14,06,44,14.30
2023,05,14,06,45,14.30
2023,05,14,06,46,14.30
2023,05,14,06,47,14.40
2023,05,14,06,48,14.40
2023,05,14,06,49,14.50
2023,05,14,06,50,14.50
2023,05,14,06,51,14.60
2023,05,14,06,52,14.70
2023,05,14,06,53,14.70
2023,05,14,06,54,14.70
2023,05,14,06,55,14.70
2023,05,14,06,56,14.80
2023,05,14,06,57,14.80
2023,05,14,06,58,14.80
2023,05,14,06,59,14.80
2023,05,14,07,00,14.80
2023,05,14,07,01,14.80
2023,05,14,07,02,14.80
2023,05,14,07,03,14.80
2023,05,14,07,04,14.80
2023,05,14,07,05,14.90
2023,05,14,07,06,15.00
2023,05,14,07,07,15.00
2023,05,14,07,08,15.10
2023,05,14,07,09,15.10
2023,05,14,07,10,15.10
2023,05,14,07,11,15.20
2023,05,14,07,12,15.20
2023,05,14,07,13,15.30
2023,05,14,07,14,15.30
2023,05,14,07,15,15.40
2023,05,14,07,16,15.40
2023,05,14,07,17,15.40
2023,05,14,07,18,15.40
2023,05,14,07,19,15.50
2023,05,14,07,20,15.60
2023,05,14,07,21,15.70
2023,05,14,07,22,15.80
2023,05,14,07,23,15.80
2023,05,14,07,24,15.90
2023,05,14,07,25,16.00
2023,05,14,07,26,16.00
2023,05,14,07,27,16.10
2023,05,14,07,28,16.10
2023,05,14,07,29,16.10
2023,05,14,07,30,16.20
2023,05,14,07,31,16.20
2023,05,14,07,32,16.20
2023,05,14,07,33,16.20
2023,05,14,07,34,16.30
2023,05,14,07,35,16.30
2023,05,14,07,36,16.30
2023,05,14,07,37,16.40
2023,05,14,07,38,16.40
2023,05,14,07,39,16.50
2023,05,14,07,40,16.50
2023,05,14,07,41,16.50
2023,05,14,07,42,16.50
2023,05,14,07,43,16.40
2023,05,14,07,44,16.40
2023,05,14,07,45,16.40
2023,05,14,07,46,16.40
2023,05,14,07,47,16.40
2023,05,14,07,48,16.40
2023,05,14,07,49,16.40
2023,05,14,07,50,16.50
2023,05,14,07,51,16.50
2023,05,14,07,52,16.60
2023,05,14,07,53,16.60
2023,05,14,07,54,16.70
2023,05,14,07,55,16.80
2023,05,14,07,56,17.00
2023,05,14,07,57,17.10
2023,05,14,07,58,17.20
2023,05,14,07,59,17.40
2023,05,14,08,00,17.60
2023,05,14,08,01,17.70
2023,05,14,08,02,17.90
2023,05,14,08,03,18.10
2023,05,14,08,04,18.20
2023,05,14,08,05,18.40
2023,05,14,08,06,18.50
2023,05,14,08,07,18.60
2023,05,14,08,08,18.70
2023,05,14,08,09,18.80
2023,05,14,08,10,18.90
2023,05,14,08,11,19.00
2023,05,14,08,12,19.10
2023,05,14,08,13,19.20
2023,05,14,08,14,19.30
2023,05,14,08,15,19.50
2023,05,14,08,16,19.60
2023,05,14,08,17,19.80
2023,05,14,08,18,19.90
2023,05,14,08,19,19.90
2023,05,14,08,20,19.90
2023,05,14,08,21,19.90
2023,05,14,08,22,19.90
2023,05,14,08,23,19.90
2023,05,14,08,24,19.90
2023,05,14,08,25,19.90
2023,05,14,08,26,19.90
2023,05,14,08,27,20.00
2023,05,14,08,28,20.00
2023,05,14,08,29,20.00
2023,05,14,08,30,20.10
2023,05,14,08,31,20.10
2023,05,14,08,32,20.20
2023,05,14,08,33,20.30
2023,05,14,08,34,20.40
2023,05,14,08,35,20.60
2023,05,14,08,36,20.80
2023,05,14,08,37,20.80
2023,05,14,08,38,20.90
2023,05,14,08,39,20.90
2023,05,14,08,40,21.00
2023,05,14,08,41,21.00
2023,05,14,08,42,21.10
2023,05,14,08,43,21.20
2023,05,14,08,44,21.30
2023,05,14,08,45,21.30
2023,05,14,08,46,21.30
2023,05,14,08,47,21.40
2023,05,14,08,48,21.50
2023,05,14,08,49,21.60
2023,05,14,08,50,21.70
2023,05,14,08,51,21.80
2023,05,14,08,52,21.90
2023,05,14,08,53,22.10
2023,05,14,08,54,22.10
2023,05,14,08,55,21.70
2023,05,14,08,56,21.20
2023,05,14,08,57,20.80
2023,05,14,08,58,20.40
2023,05,14,08,59,20.10
2023,05,14,09,00,19.90
2023,05,14,09,01,19.80
2023,05,14,09,02,19.80
2023,05,14,09,03,19.70
2023,05,14,09,04,19.60
2023,05,14,09,05,19.60
2023,05,14,09,06,19.60
2023,05,14,09,07,19.60
2023,05,14,09,08,19.70
2023,05,14,09,09,19.70
2023,05,14,09,10,19.80
2023,05,14,09,11,19.80
2023,05,14,09,12,19.90
2023,05,14,09,13,20.20
2023,05,14,09,14,20.50
2023,05,14,09,15,20.70
2023,05,14,09,16,21.00
2023,05,14,09,17,21.40
2023,05,14,09,18,21.70
2023,05,14,09,19,22.00
2023,05,14,09,20,22.30
2023,05,14,09,21,22.50
2023,05,14,09,22,22.60
2023,05,14,09,23,22.70
2023,05,14,09,24,22.80
2023,05,14,09,25,22.90
2023,05,14,09,26,22.90
2023,05,14,09,27,23.00
2023,05,14,09,28,23.10
2023,05,14,09,29,23.10
2023,05,14,09,30,23.20
2023,05,14,09,31,23.20
2023,05,14,09,32,23.20
2023,05,14,09,33,23.20
2023,05,14,09,34,23.30
2023,05,14,09,35,23.30
2023,05,14,09,36,23.30
2023,05,14,09,37,23.40
2023,05,14,09,38,23.40
2023,05,14,09,39,23.50
2023,05,14,09,40,23.50
2023,05,14,09,41,23.60
2023,05,14,09,42,23.60
2023,05,14,09,43,23.60
2023,05,14,09,44,23.70
2023,05,14,09,45,23.70
2023,05,14,09,46,23.80
2023,05,14,09,47,23.80
2023,05,14,09,48,23.80
2023,05,14,09,49,23.80
2023,05,14,09,50,23.80
2023,05,14,09,51,23.90
2023,05,14,09,52,23.90
2023,05,14,09,53,23.90
2023,05,14,09,54,23.90
2023,05,14,09,55,23.90
2023,05,14,09,56,23.90
2023,05,14,09,57,24.00
2023,05,14,09,58,23.90
2023,05,14,09,59,23.90
2023,05,14,10,00,23.90
2023,05,14,10,01,23.90
2023,05,14,10,02,24.00
2023,05,14,10,03,24.00
2023,05,14,10,04,24.00
2023,05,14,10,05,24.10
2023,05,14,10,06,24.10
2023,05,14,10,07,24.20
2023,05,14,10,08,24.20
2023,05,14,10,09,24.20
2023,05,14,10,10,24.30
2023,05,14,10,11,24.30
2023,05,14,10,12,24.30
2023,05,14,10,13,24.30
2023,05,14,10,14,24.30
2023,05,14,10,15,24.40
2023,05,14,10,16,24.40
2023,05,14,10,17,24.50
2023,05,14,10,18,24.50
2023,05,14,10,19,24.50
2023,05,14,10,20,24.50
2023,05,14,10,21,24.50
2023,05,14,10,22,24.50
2023,05,14,10,23,24.50
2023,05,14,10,24,24.50
2023,05,14,10,25,24.50
2023,05,14,10,26,24.50
2023,05,14,10,27,24.60
2023,05,14,10,28,24.60
2023,05,14,10,29,24.70
2023,05,14,10,30,24.70
2023,05,14,10,31,24.70
2023,05,14,10,32,24.70
2023,05,14,10,33,24.70
2023,05,14,10,34,24.60
2023,05,14,10,35,24.50
2023,05,14,10,36,24.40
2023,05,14,10,37,24.40
2023,05,14,10,38,24.30
2023,05,14,10,39,24.30
2023,05,14,10,40,24.30
2023,05,14,10,41,24.30
2023,05,14,10,42,24.30
2023,05,14,10,43,24.30
2023,05,14,10,44,24.30
2023,05,14,10,45,24.30
2023,05,14,10,46,24.30
2023,05,14,10,47,24.30
2023,05,14,10,48,24.30
2023,05,14,10,49,24.30
2023,05,14,10,50,24.30
2023,05,14,10,51,24.30
2023,05,14,10,52,24.30
2023,05,14,10,53,24.30
2023,05,14,10,54,24.30
2023,05,14,10,55,24.40
2023,05,14,10,56,24.40
2023,05,14,10,57,24.50
2023,05,14,10,58,24.50
2023,05,14,10,59,24.60
2023,05,14,11,00,24.60
2023,05,14,11,01,24.70
2023,05,14,11,02,24.70
2023,05,14,11,03,24.70
2023,05,14,11,04,24.70
2023,05,14,11,05,24.70
2023,05,14,11,06,24.70
2023,05,14,11,07,24.70
2023,05,14,11,08,24.70
2023,05,14,11,09,24.70
2023,05,14,11,10,24.80
2023,05,14,11,11,24.90
2023,05,14,11,12,25.00
2023,05,14,11,13,25.10
2023,05,14,11,14,25.10
2023,05,14,11,15,25.20
2023,05,14,11,16,25.20
2023,05,14,11,17,25.30
2023,05,14,11,18,25.30
2023,05,14,11,19,25.40
2023,05,14,11,20,25.40
2023,05,14,11,21,25.50
2023,05,14,11,22,25.50
2023,05,14,11,23,25.50
2023,05,14,11,24,25.50
2023,05,14,11,25,25.60
2023,05,14,11,26,25.60
2023,05,14,11,27,25.60
2023,05,14,11,28,25.60
2023,05,14,11,29,25.60
2023,05,14,11,30,25.60
2023,05,14,11,31,25.50
2023,05,14,11,32,25.50
2023,05,14,11,33,25.40
2023,05,14,11,34,25.40
2023,05,14,11,35,25.40
2023,05,14,11,36,25.50
2023,05,14,11,37,25.50
2023,05,14,11,38,25.50
2023,05,14,11,39,25.60
2023,05,14,11,40,25.60
2023,05,14,11,41,25.60
2023,05,14,11,42,25.60
2023,05,14,11,43,25.60
2023,05,14,11,44,25.60
2023,05,14,11,45,25.60
2023,05,14,11,46,25.70
2023,05,14,11,47,25.70
2023,05,14,11,48,25.70
2023,05,14,11,49,25.70
2023,05,14,11,50,25.70
2023,05,14,11,51,25.80
2023,05,14,11,52,25.80
2023,05,14,11,53,25.90
2023,05,14,11,54,25.90
2023,05,14,11,55,26.00
2023,05,14,11,56,26.00
2023,05,14,11,57,26.10
2023,05,14,11,58,26.10
2023,05,14,11,59,26.00
2023,05,14,12,00,26.00
2023,05,14,12,01,26.00
2023,05,14,12,02,26.00
2023,05,14,12,03,26.00
2023,05,14,12,04,26.00
2023,05,14,12,05,26.10
2023,05,14,12,06,26.10
2023,05,14,12,07,26.10
2023,05,14,12,08,26.10
2023,05,14,12,09,26.20
2023,05,14,12,10,26.40
2023,05,14,12,11,26.50
2023,05,14,12,12,26.60
2023,05,14,12,13,26.60
2023,05,14,12,14,26.70
2023,05,14,12,15,26.60
2023,05,14,12,16,26.60
2023,05,14,12,17,26.60
2023,05,14,12,18,26.60
2023,05,14,12,19,26.60
2023,05,14,12,20,26.50
2023,05,14,12,21,26.40
2023,05,14,12,22,26.40
2023,05,14,12,23,26.40
2023,05,14,12,24,26.40
2023,05,14,12,25,26.50
2023,05,14,12,26,26.40
2023,05,14,12,27,26.40
2023,05,14,12,28,26.50
2023,05,14,12,29,26.50
2023,05,14,12,30,26.50
2023,05,14,12,31,26.60
2023,05,14,12,32,26.60
2023,05,14,12,33,26.60
2023,05,14,12,34,26.60
2023,05,14,12,35,26.70
2023,05,14,12,36,26.70
2023,05,14,12,37,26.70
2023,05,14,12,38,26.70
2023,05,14,12,39,26.80
2023,05,14,12,40,26.80
2023,05,14,12,41,26.90
2023,05,14,12,42,26.90
2023,05,14,12,43,26.90
2023,05,14,12,44,26.90
2023,05,14,12,45,26.90
2023,05,14,12,46,26.90
2023,05,14,12,47,26.90
2023,05,14,12,48,26.90
2023,05,14,12,49,26.90
2023,05,14,12,50,26.90
2023,05,14,12,51,26.90
2023,05,14,12,52,26.90
2023,05,14,12,53,26.90
2023,05,14,12,54,27.00
2023,05,14,12,55,27.00
2023,05,14,12,56,27.10
2023,05,14,12,57,27.10
2023,05,14,12,58,27.20
2023,05,14,12,59,27.20
2023,05,14,13,00,27.20
2023,05,14,13,01,27.20
2023,05,14,13,02,27.20
2023,05,14,13,03,27.20
2023,05,14,13,04,27.30
2023,05,14,13,05,27.30
2023,05,14,13,06,27.30
2023,05,14,13,07,27.30
2023,05,14,13,08,27.40
2023,05,14,13,09,27.40
2023,05,14,13,10,27.40
2023,05,14,13,11,27.40
2023,05,14,13,12,27.50
2023,05,14,13,13,27.50
2023,05,14,13,14,27.50
2023,05,14,13,15,27.50
2023,05,14,13,16,27.50
2023,05,14,13,17,27.50
2023,05,14,13,18,27.50
2023,05,14,13,19,27.50
2023,05,14,13,20,27.50
2023,05,14,13,21,27.50
2023,05,14,13,22,27.40
2023,05,14,13,23,27.30
2023,05,14,13,24,27.30
2023,05,14,13,25,27.30
2023,05,14,13,26,27.40
2023,05,14,13,27,27.40
2023,05,14,13,28,27.40
2023,05,14,13,29,27.40
2023,05,14,13,30,27.40
2023,05,14,13,31,27.40
2023,05,14,13,32,27.30
2023,05,14,13,33,27.30
2023,05,14,13,34,27.30
2023,05,14,13,35,27.30
2023,05,14,13,36,27.30
2023,05,14,13,37,27.30
2023,05,14,13,38,27.30
2023,05,14,13,39,27.30
2023,05,14,13,40,27.30
2023,05,14,13,41,27.30
2023,05,14,13,42,27.30
2023,05,14,13,43,27.20
2023,05,14,13,44,27.10
2023,05,14,13,45,27.10
2023,05,14,13,46,27.10
2023,05,14,13,47,27.10
2023,05,14,13,48,27.10
2023,05,14,13,49,27.20
2023,05,14,13,50,27.20
2023,05,14,13,51,27.30
2023,05,14,13,52,27.40
2023,05,14,13,53,27.40
2023,05,14,13,54,27.40
2023,05,14,13,55,27.40
2023,05,14,13,56,27.30
2023,05,14,13,57,27.30
2023,05,14,13,58,27.20
2023,05,14,13,59,27.20
2023,05,14,14,00,27.10
2023,05,14,14,01,27.00
2023,05,14,14,02,27.00
2023,05,14,14,03,27.00
2023,05,14,14,04,27.10
2023,05,14,14,05,27.10
2023,05,14,14,06,27.10
2023,05,14,14,07,27.20
2023,05,14,14,08,27.20
2023,05,14,14,09,27.20
2023,05,14,14,10,27.30
2023,05,14,14,11,27.40
2023,05,14,14,12,27.40
2023,05,14,14,13,27.50
2023,05,14,14,14,27.50
2023,05,14,14,15,27.60
2023,05,14,14,16,27.60
2023,05,14,14,17,27.70
2023,05,14,14,18,27.70
2023,05,14,14,19,27.80
2023,05,14,14,20,27.80
2023,05,14,14,21,27.80
2023,05,14,14,22,27.80
2023,05,14,14,23,27.80
2023,05,14,14,24,27.80
2023,05,14,14,25,27.90
2023,05,14,14,26,27.90
2023,05,14,14,27,28.00
2023,05,14,14,28,28.10
2023,05,14,14,29,28.10
2023,05,14,14,30,28.20
2023,05,14,14,31,28.20
2023,05,14,14,32,28.30
2023,05,14,14,33,28.30
2023,05,14,14,34,28.40
2023,05,14,14,35,28.50
2023,05,14,14,36,28.60
2023,05,14,14,37,28.60
2023,05,14,14,38,28.70
2023,05,14,14,39,28.70
2023,05,14,14,40,28.70
2023,05,14,14,41,28.70
2023,05,14,14,42,28.70
2023,05,14,14,43,28.70
2023,05,14,14,44,28.70
2023,05,14,14,45,28.70
2023,05,14,14,46,28.70
2023,05,14,14,47,28.70
2023,05,14,14,48,28.70
2023,05,14,14,49,28.80
2023,05,14,14,50,28.70
2023,05,14,14,51,28.80
2023,05,14,14,52,28.80
2023,05,14,14,53,28.90
2023,05,14,14,54,28.90
2023,05,14,14,55,28.90
2023,05,14,14,56,29.00
2023,05,14,14,57,29.00
2023,05,14,14,58,29.10
2023,05,14,14,59,29.10
2023,05,14,15,00,29.10
2023,05,14,15,01,29.20
2023,05,14,15,02,29.10
2023,05,14,15,03,29.10
2023,05,14,15,04,29.00
2023,05,14,15,05,29.00
2023,05,14,15,06,29.00
2023,05,14,15,07,29.00
2023,05,14,15,08,29.00
2023,05,14,15,09,29.00
2023,05,14,15,10,29.00
2023,05,14,15,11,29.00
2023,05,14,15,12,29.00
2023,05,14,15,13,29.00
2023,05,14,15,14,29.00
2023,05,14,15,15,29.00
2023,05,14,15,16,29.00
2023,05,14,15,17,29.00
2023,05,14,15,18,29.00
2023,05,14,15,19,29.10
2023,05,14,15,20,29.10
2023,05,14,15,21,29.20
2023,05,14,15,22,29.20
2023,05,14,15,23,29.30
2023,05,14,15,24,29.30
2023,05,14,15,25,29.30
2023,05,14,15,26,29.40
2023,05,14,15,27,29.40
2023,05,14,15,28,29.50
2023,05,14,15,29,29.50
2023,05,14,15,30,29.60
2023,05,14,15,31,29.50
2023,05,14,15,32,29.50
2023,05,14,15,33,29.50
2023,05,14,15,34,29.50
2023,05,14,15,35,29.50
2023,05,14,15,36,29.60
2023,05,14,15,37,29.60
2023,05,14,15,38,29.60
2023,05,14,15,39,29.60
2023,05,14,15,40,29.60
2023,05,14,15,41,29.70
2023,05,14,15,42,29.80
2023,05,14,15,43,29.80
2023,05,14,15,44,29.80
2023,05,14,15,45,29.90
2023,05,14,15,46,29.90
2023,05,14,15,47,29.90
2023,05,14,15,48,29.90
2023,05,14,15,49,29.90
2023,05,14,15,50,29.90
2023,05,14,15,51,29.90
2023,05,14,15,52,29.90
2023,05,14,15,53,30.00
2023,05,14,15,54,30.00
2023,05,14,15,55,30.00
2023,05,14,15,56,30.10
2023,05,14,15,57,30.10
2023,05,14,15,58,30.10
2023,05,14,15,59,30.10
2023,05,14,16,00,30.00
2023,05,14,16,01,30.00
2023,05,14,16,02,30.00
2023,05,14,16,03,30.10
2023,05,14,16,04,30.10
2023,05,14,16,05,30.10
2023,05,14,16,06,30.20
2023,05,14,16,07,30.20
2023,05,14,16,08,30.20
2023,05,14,16,09,30.30
2023,05,14,16,10,30.30
2023,05,14,16,11,30.40
2023,05,14,16,12,30.50
2023,05,14,16,13,30.60
2023,05,14,16,14,30.70
2023,05,14,16,15,30.70
2023,05,14,16,16,30.70
2023,05,14,16,17,30.60
2023,05,14,16,18,30.50
2023,05,14,16,19,30.30
2023,05,14,16,20,30.20
2023,05,14,16,21,30.10
2023,05,14,16,22,30.10
2023,05,14,16,23,30.10
2023,05,14,16,24,30.10
2023,05,14,16,25,30.10
2023,05,14,16,26,30.10
2023,05,14,16,27,30.10
2023,05,14,16,28,30.10
2023,05,14,16,29,30.10
2023,05,14,16,30,30.00
2023,05,14,16,31,29.90
2023,05,14,16,32,29.90
2023,05,14,16,33,29.90
2023,05,14,16,34,29.90
2023,05,14,16,35,29.90
2023,05,14,16,36,30.00
2023,05,14,16,37,30.00
2023,05,14,16,38,30.00
2023,05,14,16,39,29.90
2023,05,14,16,40,29.90
2023,05,14,16,41,29.80
2023,05,14,16,42,29.70
2023,05,14,16,43,29.60
2023,05,14,16,44,29.40
2023,05,14,16,45,29.20
2023,05,14,16,46,29.00
2023,05,14,16,47,28.80
2023,05,14,16,48,28.70
2023,05,14,16,49,28.70
2023,05,14,16,50,28.70
2023,05,14,16,51,28.60
2023,05,14,16,52,28.60
2023,05,14,16,53,28.50
2023,05,14,16,54,28.40
2023,05,14,16,55,28.50
2023,05,14,16,56,28.50
2023,05,14,16,57,28.50
2023,05,14,16,58,28.50
2023,05,14,16,59,28.60
2023,05,14,17,00,28.70
2023,05,14,17,01,28.80
2023,05,14,17,02,28.90
2023,05,14,17,03,29.00
2023,05,14,17,04,29.10
2023,05,14,17,05,29.20
2023,05,14,17,06,29.30
2023,05,14,17,07,29.40
2023,05,14,17,08,29.40
2023,05,14,17,09,29.50
2023,05,14,17,10,29.60
2023,05,14,17,11,29.70
2023,05,14,17,12,29.70
2023,05,14,17,13,29.80
2023,05,14,17,14,29.90
2023,05,14,17,15,30.00
2023,05,14,17,16,30.10
2023,05,14,17,17,30.20
2023,05,14,17,18,30.20
2023,05,14,17,19,30.30